Location: Unspecified
(0.0000°N, 0.0000°E)
Time: 03:44:16
(UTC+00:00)

deb r/b Ablestar - Pass Details

Date: 08 March 2026
Orbit: 937 x 1853 km, 67.2° (Epoch: 13 April)

Event Time Altitude Azimuth Distance (km) Brightness Sun altitude
Rises 22:07:49 0° 306° (NW) 5,175 ? -59.0°
Reaches altitude 10° 22:12:36 10° 289° (WNW) 4,208 ? -60.2°
Maximum altitude 22:19:04 18° 251° (WSW) 3,581 ? -61.8°
Enters shadow 22:22:53 15° 227° (SW) 3,748 ? -62.7°
Exits shadow 22:27:29 - 204° (SSW) 4,418 ? -63.8°
Sets 22:30:02 0° 195° (SSW) 4,933 ? -64.4°
